This demonstration page uses our WeatherBlox Daily Observations layout. Learn more.

Hourly Observations for March 8, 2020

Temp ( °F °C ) Dew Point ( °F °C ) Humidity (%) Winds ( mph kmh ) Pressure ( in mb ) Visibility ( mi km ) Precip ( " mm )
12:15 am 00:15 Clear 50 10 31 -0.4 49 49 S 15 24 29.87 1012 10 16.0934 0 0
12:35 am 00:35 Clear 49 9.6 32 0 52 52 S 14 22 29.87 1011 10 16.0934 0 0
12:55 am 00:55 Clear 49 9.6 32 0 52 52 S 15 24 29.87 1011 10 16.0934 0 0
1:15 am 01:15 Clear 50 9.8 32 0.1 51 51 S 15 24 29.85 1011 10 16.0934 0 0
1:35 am 01:35 Clear 50 9.8 33 0.3 52 52 S 17 28 29.85 1011 10 16.0934 0 0
1:55 am 01:55 Clear 49 9.7 33 0.5 53 53 S 15 24 29.86 1011 10 16.0934 0 0
3:15 am 03:15 Clear 49 9.4 33 0.7 55 55 S 14 22 29.85 1011 10 16.0934 0 0
3:35 am 03:35 Clear 49 9.6 34 1.1 56 56 S 14 22 29.85 1011 10 16.0934 0 0
3:55 am 03:55 Clear 48 9 34 1.1 58 58 S 14 22 29.84 1011 10 16.0934 0 0
4:15 am 04:15 Clear 47 8.3 34 1.2 61 61 S 14 22 29.85 1011 10 16.0934 0 0
4:35 am 04:35 Clear 48 8.7 35 1.6 61 61 S 15 24 29.83 1010 10 16.0934 0 0
4:55 am 04:55 Clear 47 8.3 35 1.7 63 63 S 15 24 29.84 1010 10 16.0934 0 0
5:15 am 05:15 Clear 45 7.3 35 1.5 67 67 S 10 17 29.85 1011 10 16.0934 0 0
5:35 am 05:35 Clear 45 7.1 35 1.7 69 69 S 9 15 29.85 1011 10 16.0934 0 0
5:55 am 05:55 Clear 45 7.1 36 2 70 70 S 13 20 29.84 1010 10 16.0934 0 0
6:15 am 06:15 Clear 45 7 36 2 71 71 S 13 20 29.84 1010 10 16.0934 0 0
6:35 am 06:35 Clear 45 7.3 36 2.1 70 70 S 15 24 29.83 1010 10 16.0934 0 0
6:55 am 06:55 Clear 45 7.1 36 2.1 71 71 S 13 20 29.83 1010 10 16.0934 0 0
7:15 am 07:15 Clear 44 6.8 36 2.1 72 72 S 12 19 29.83 1010 10 16.0934 0 0
7:35 am 07:35 Clear 45 7 36 2.2 72 72 S 13 20 29.83 1010 10 16.0934 0 0
7:55 am 07:55 Clear 44 6.7 36 2 72 72 SSE 9 15 29.83 1010 10 16.0934 0 0
8:15 am 08:15 Sunny 42 5.5 35 1.7 77 77 SSE 9 15 29.84 1011 10 16.0934 0 0
8:35 am 08:35 Sunny 43 6 36 2 76 76 S 9 15 29.83 1010 10 16.0934 0 0
8:55 am 08:55 Sunny 45 7.3 37 2.5 72 72 S 12 19 29.83 1010 10 16.0934 0 0
9:15 am 09:15 Sunny 48 8.7 37 3 68 68 S 14 22 29.81 1010 10 16.0934 0 0
9:35 am 09:35 Sunny 49 9.7 37 3 63 63 S 17 28 29.8 1009 10 16.0934 0 0
9:55 am 09:55 Sunny 51 10.5 38 3.2 61 61 S 20 31 29.79 1009 10 16.0934 0 0
10:15 am 10:15 Sunny 53 11.5 38 3.5 58 58 SSW 24 39 29.78 1008 10 16.0934 0 0
10:35 am 10:35 Sunny 55 12.6 39 3.8 55 55 SSW 26 43 29.77 1008 10 16.0934 0 0
10:55 am 10:55 Sunny 56 13.4 39 4 53 53 SSW 22 35 29.75 1008 10 16.0934 0 0
11:15 am 11:15 Sunny 58 14.5 39 4.1 50 50 SSW 24 39 29.74 1007 10 16.0934 0 0
11:35 am 11:35 Sunny 60 15.8 40 4.2 46 46 SSW 21 33 29.73 1007 10 16.0934 0 0
11:55 am 11:55 Sunny 62 16.7 39 4.1 43 43 SSW 22 35 29.73 1007 10 16.0934 0 0
12:15 pm 12:15 Sunny 64 17.9 39 4.1 40 40 SSW 20 31 29.71 1006 10 16.0934 0 0
12:35 pm 12:35 Sunny 66 19.1 39 4 37 37 SSW 15 24 29.7 1006 10 16.0934 0 0
12:55 pm 12:55 Sunny 68 20 39 4.1 35 35 SSW 14 22 29.7 1006 10 16.0934 0 0
1:15 pm 13:15 Sunny 69 20.6 40 4.3 34 34 SSW 16 26 29.69 1006 10 16.0934 0 0
1:35 pm 13:35 Sunny 70 21 40 4.2 33 33 SSW 16 26 29.68 1005 10 16.0934 0 0
1:55 pm 13:55 Sunny 71 21.5 39 4.1 32 32 SSW 16 26 29.67 1005 10 16.0934 0 0
2:15 pm 14:15 Sunny 74 23.1 40 4.3 29 29 SSW 17 28 29.65 1004 10 16.0934 0 0
2:35 pm 14:35 Sunny 73 23 39 4 29 29 SSW 17 28 29.64 1004 10 16.0934 0 0
2:55 pm 14:55 Sunny 74 23.6 39 4 28 28 SSW 14 22 29.64 1004 10 16.0934 0 0
3:15 pm 15:15 Sunny 74 23.6 39 3.8 28 28 SW 12 19 29.63 1003 10 16.0934 0 0
3:35 pm 15:35 Sunny 76 24.4 39 4 27 27 S 10 17 29.62 1003 10 16.0934 0 0
3:55 pm 15:55 Sunny 75 23.7 39 3.9 28 28 SSW 17 28 29.63 1003 10 16.0934 0 0
4:15 pm 16:15 Sunny 74 23.6 39 3.7 27 27 SSW 17 28 29.63 1003 10 16.0934 0 0
4:35 pm 16:35 Sunny 75 24 40 4.2 28 28 S 14 22 29.63 1003 10 16.0934 0 0
4:55 pm 16:55 Sunny 74 23.5 40 4.7 30 30 SSE 18 30 29.63 1003 10 16.0934 0 0
5:15 pm 17:15 Sunny 72 22.2 40 4.6 32 32 S 20 31 29.64 1004 10 16.0934 0 0
5:35 pm 17:35 Sunny 74 23.4 40 4.6 30 30 S 16 26 29.62 1003 10 16.0934 0 0
5:55 pm 17:55 Sunny 72 22 41 5 33 33 S 21 33 29.64 1004 10 16.0934 0 0
6:15 pm 18:15 Sunny 70 21.1 41 5 35 35 S 21 33 29.66 1004 10 16.0934 0 0
6:35 pm 18:35 Sunny 68 20.2 41 5.1 37 37 S 16 26 29.68 1005 10 16.0934 0 0
6:55 pm 18:55 Sunny 66 19.1 42 5.5 41 41 S 17 28 29.69 1005 10 16.0934 0 0
7:15 pm 19:15 Sunny 64 17.9 43 5.9 46 46 S 14 22 29.71 1006 10 16.0934 0 0
7:35 pm 19:35 Sunny 63 17.1 43 5.9 48 48 S 13 20 29.71 1006 10 16.0934 0 0
7:55 pm 19:55 Clear 62 16.6 43 5.9 49 49 S 12 19 29.73 1007 10 16.0934 0 0
8:15 pm 20:15 Clear 61 16 43 6.1 52 52 S 15 24 29.73 1007 10 16.0934 0 0
8:35 pm 20:35 Clear 59 15.2 43 6 54 54 S 13 20 29.75 1007 10 16.0934 0 0
8:55 pm 20:55 Clear 58 14.7 43 6.1 57 57 S 12 19 29.75 1008 10 16.0934 0 0
9:15 pm 21:15 Clear 58 14.2 43 6.2 59 59 S 12 19 29.77 1008 10 16.0934 0 0
9:35 pm 21:35 Clear 57 13.9 44 6.5 61 61 S 13 20 29.79 1009 10 16.0934 0 0
9:55 pm 21:55 Clear 56 13.5 45 7 65 65 S 14 22 29.79 1009 10 16.0934 0 0
10:15 pm 22:15 Clear 55 12.9 45 7.2 69 69 S 13 20 29.81 1009 10 16.0934 0 0
10:35 pm 22:35 Clear 55 12.5 46 7.6 72 72 S 12 19 29.81 1010 10 16.0934 0 0
10:55 pm 22:55 Clear 54 12 46 7.9 76 76 S 10 17 29.84 1010 10 16.0934 0 0
11:15 pm 23:15 Clear 53 11.5 47 8.1 80 80 S 10 17 29.84 1010 10 16.0934 0 0
11:35 pm 23:35 Partly Cloudy 52 11.1 47 8.4 84 84 S 9 15 29.84 1011 10 16.0934 0 0
11:55 pm 23:55 Mostly Cloudy 53 11.5 47 8.4 81 81 N 5 7 29.88 1012 10 16.0934 0 0

Powered by AerisWeather